| time (UTC) | temp F | wind direction | speed MPH | gust MPH | rain 1hr in | rain 24hr in | rain mn in | humidity % | barometer mb |
| 20260506173036 | 55 | 71 | 1.0 | 4.0 | 0.00 | 0.02 | 0.02 | 88 | 988.9 |
| 20260506172016 | 55 | 316 | 0.0 | 3.0 | 0.00 | 0.02 | 0.02 | 89 | 988.9 |
| 20260506171036 | 55 | 345 | 0.0 | 6.0 | 0.00 | 0.02 | 0.02 | 89 | 989.0 |
| 20260506170015 | 55 | 23 | 2.0 | 7.0 | 0.00 | 0.02 | 0.02 | 89 | 988.7 |
| 20260506165015 | 55 | 27 | 2.0 | 6.0 | 0.00 | 0.02 | 0.02 | 89 | 989.2 |
| 20260506164016 | 55 | 1 | 1.0 | 6.0 | 0.01 | 0.02 | 0.02 | 89 | 989.2 |
| 20260506163016 | 55 | 349 | 1.0 | 5.0 | 0.02 | 0.02 | 0.02 | 89 | 989.7 |
| 20260506162016 | 54 | 19 | 1.0 | 9.0 | 0.02 | 0.02 | 0.02 | 90 | 989.7 |
| 20260506161015 | 54 | 77 | 3.0 | 6.0 | 0.02 | 0.02 | 0.02 | 92 | 989.6 |
| 20260506160016 | 54 | 65 | 3.0 | 5.0 | 0.02 | 0.02 | 0.02 | 92 | 988.4 |
| 20260506155036 | 54 | 16 | 0.0 | 1.0 | 0.02 | 0.02 | 0.02 | 91 | 988.8 |
| 20260506154016 | 54 | 49 | 2.0 | 4.0 | 0.01 | 0.01 | 0.01 | 89 | 989.4 |
| 20260506153016 | 55 | 281 | 2.0 | 7.0 | 0.00 | 0.00 | 0.00 | 85 | 991.4 |
| 20260506152016 | 55 | 294 | 2.0 | 4.0 | 0.00 | 0.00 | 0.00 | 84 | 990.3 |
| 20260506151016 | 54 | 0.0 | 0.0 | 0.00 | 0.00 | 0.00 | 84 | 989.9 | |
| 20260506150016 | 54 | 285 | 1.0 | 7.0 | 0.00 | 0.00 | 0.00 | 84 | 989.5 |
| 20260506145016 | 54 | 359 | 4.0 | 7.0 | 0.00 | 0.00 | 0.00 | 84 | 989.3 |
| 20260506144016 | 55 | 0.0 | 0.0 | 0.00 | 0.00 | 0.00 | 84 | 989.4 | |
| 20260506143016 | 55 | 12 | 0.0 | 1.0 | 0.00 | 0.00 | 0.00 | 83 | 989.5 |
| 20260506142016 | 54 | 353 | 1.0 | 4.0 | 0.00 | 0.00 | 0.00 | 84 | 988.9 |
| 20260506141016 | 54 | 4 | 3.0 | 7.0 | 0.00 | 0.00 | 0.00 | 84 | 988.9 |
| 20260506140016 | 54 | 4 | 3.0 | 7.0 | 0.00 | 0.00 | 0.00 | 86 | 988.6 |
| 20260506135016 | 54 | 0.0 | 5.0 | 0.00 | 0.00 | 0.00 | 86 | 988.5 | |
| 20260506134016 | 54 | 0.0 | 0.0 | 0.00 | 0.00 | 0.00 | 87 | 988.4 | |
| 20260506133016 | 54 | 0.0 | 0.0 | 0.00 | 0.00 | 0.00 | 86 | 988.4 | |
| 20260506132036 | 54 | 0 | 0.0 | 3.0 | 0.00 | 0.00 | 0.00 | 86 | 988.0 |
| 20260506131016 | 54 | 0.0 | 0.0 | 0.00 | 0.00 | 0.00 | 85 | 988.0 | |
| 20260506130016 | 54 | 37 | 1.0 | 12.0 | 0.00 | 0.00 | 0.00 | 84 | 987.9 |
| 20260506125016 | 54 | 10 | 2.0 | 5.0 | 0.00 | 0.00 | 0.00 | 84 | 987.9 |
| 20260506124016 | 54 | 312 | 0.0 | 3.0 | 0.00 | 0.00 | 0.00 | 84 | 987.7 |
| 20260506123016 | 54 | 342 | 1.0 | 3.0 | 0.00 | 0.00 | 0.00 | 83 | 987.8 |
| 20260506122015 | 55 | 299 | 1.0 | 5.0 | 0.00 | 0.00 | 0.00 | 82 | 987.5 |
| 20260506121016 | 55 | 25 | 0.0 | 3.0 | 0.00 | 0.00 | 0.00 | 82 | 987.5 |
| 20260506120015 | 55 | 349 | 2.0 | 4.0 | 0.00 | 0.00 | 0.00 | 81 | 987.6 |
| 20260506115036 | 55 | 353 | 1.0 | 8.0 | 0.00 | 0.00 | 0.00 | 80 | 987.2 |
| 20260506114016 | 55 | 54 | 1.0 | 4.0 | 0.00 | 0.00 | 0.00 | 80 | 987.0 |
| 20260506113016 | 56 | 348 | 2.0 | 4.0 | 0.00 | 0.00 | 0.00 | 79 | 986.6 |
| 20260506112015 | 56 | 0.0 | 3.0 | 0.00 | 0.00 | 0.00 | 79 | 986.7 | |
| 20260506111016 | 56 | 22 | 1.0 | 5.0 | 0.00 | 0.00 | 0.00 | 79 | 986.5 |
| 20260506110016 | 56 | 354 | 3.0 | 9.0 | 0.00 | 0.00 | 0.00 | 77 | 986.4 |
| 20260506105016 | 56 | 359 | 1.0 | 4.0 | 0.00 | 0.00 | 0.00 | 77 | 986.2 |
| 20260506104016 | 56 | 318 | 2.0 | 7.0 | 0.00 | 0.00 | 0.00 | 76 | 986.2 |
| 20260506103016 | 57 | 350 | 1.0 | 3.0 | 0.00 | 0.00 | 0.00 | 75 | 985.8 |
| 20260506102016 | 57 | 313 | 3.0 | 6.0 | 0.00 | 0.00 | 0.00 | 75 | 985.6 |
| 20260506101036 | 57 | 0.0 | 1.0 | 0.00 | 0.00 | 0.00 | 75 | 985.4 | |
| 20260506100016 | 58 | 0 | 2.0 | 6.0 | 0.00 | 0.00 | 0.00 | 75 | 985.4 |
| 20260506095016 | 58 | 349 | 1.0 | 5.0 | 0.00 | 0.00 | 0.00 | 76 | 985.3 |
| 20260506094036 | 58 | 301 | 3.0 | 6.0 | 0.00 | 0.00 | 0.00 | 76 | 985.3 |
| 20260506093016 | 58 | 291 | 0.0 | 2.0 | 0.00 | 0.00 | 0.00 | 76 | 985.1 |
| 20260506092036 | 58 | 306 | 0.0 | 8.0 | 0.00 | 0.00 | 0.00 | 76 | 985.1 |
| 20260506091016 | 59 | 15 | 0.0 | 1.0 | 0.00 | 0.00 | 0.00 | 77 | 985.0 |
| 20260506090016 | 58 | 0.0 | 0.0 | 0.00 | 0.00 | 0.00 | 77 | 985.0 | |
| 20260506085016 | 58 | 358 | 0.0 | 1.0 | 0.00 | 0.00 | 0.00 | 77 | 984.8 |
| 20260506084015 | 58 | 0.0 | 0.0 | 0.00 | 0.00 | 0.00 | 77 | 984.7 | |
| 20260506083016 | 58 | 37 | 0.0 | 1.0 | 0.00 | 0.00 | 0.00 | 77 | 984.8 |
| 20260506082016 | 58 | 352 | 0.0 | 3.0 | 0.00 | 0.00 | 0.00 | 77 | 984.6 |
| 20260506081056 | 59 | 0.0 | 0.0 | 0.00 | 0.00 | 0.00 | 77 | 984.3 | |
| 20260506073016 | 59 | 77 | 0.0 | 1.0 | 0.00 | 0.00 | 0.00 | 78 | 984.5 |
| 20260506072016 | 59 | 358 | 1.0 | 7.0 | 0.00 | 0.00 | 0.00 | 78 | 984.6 |
| 20260506071016 | 60 | 0.0 | 0.0 | 0.00 | 0.00 | 0.00 | 78 | 984.5 | |
| 20260506062056 | 61 | 291 | 1.0 | 4.0 | 0.00 | 0.00 | 0.00 | 79 | 984.4 |
| 20260506061016 | 61 | 0.0 | 5.0 | 0.00 | 0.00 | 0.00 | 79 | 984.4 | |
| 20260506051015 | 63 | 324 | 5.0 | 10.0 | 0.00 | 0.00 | 0.00 | 79 | 984.5 |
| 20260506045016 | 63 | 356 | 1.0 | 8.0 | 0.00 | 0.00 | 0.00 | 79 | 984.3 |
| 20260506044016 | 64 | 345 | 4.0 | 8.0 | 0.00 | 0.00 | 0.00 | 78 | 984.2 |
| 20260506043036 | 64 | 340 | 1.0 | 6.0 | 0.00 | 0.00 | 0.00 | 78 | 984.1 |
| 20260506042016 | 65 | 12 | 1.0 | 7.0 | 0.00 | 0.00 | 0.00 | 78 | 984.1 |
| 20260506041036 | 65 | 0.0 | 3.0 | 0.00 | 0.00 | 0.00 | 78 | 983.7 | |
| 20260506040016 | 66 | 14 | 0.0 | 1.0 | 0.00 | 0.00 | 0.00 | 78 | 983.7 |
| 20260506035016 | 67 | 5 | 2.0 | 7.0 | 0.00 | 0.00 | 0.00 | 77 | 983.6 |
| 20260506034016 | 67 | 331 | 2.0 | 12.0 | 0.00 | 0.00 | 0.00 | 76 | 983.3 |
| 20260506033016 | 69 | 302 | 1.0 | 6.0 | 0.00 | 0.00 | 0.00 | 77 | 983.3 |
| 20260506032016 | 69 | 323 | 4.0 | 8.0 | 0.00 | 0.00 | 0.00 | 77 | 983.3 |
| 20260506031117 | 70 | 287 | 1.0 | 6.0 | 0.00 | 0.00 | 0.00 | 76 | 982.8 |
| 20260506030016 | 70 | 323 | 4.0 | 8.0 | 0.00 | 0.00 | 0.00 | 75 | 983.0 |
| 20260506025016 | 71 | 357 | 4.0 | 9.0 | 0.00 | 0.00 | 0.00 | 74 | 982.6 |
| 20260506024016 | 71 | 0.0 | 2.0 | 0.00 | 0.00 | 0.00 | 74 | 982.2 | |
| 20260506023016 | 72 | 316 | 3.0 | 7.0 | 0.00 | 0.00 | 0.00 | 73 | 981.9 |
| 20260506022016 | 73 | 346 | 1.0 | 2.0 | 0.00 | 0.00 | 0.00 | 72 | 981.6 |
| 20260506021056 | 73 | 278 | 0.0 | 2.0 | 0.00 | 0.00 | 0.00 | 71 | 981.4 |
| 20260506020016 | 74 | 0.0 | 0.0 | 0.00 | 0.00 | 0.00 | 70 | 981.1 | |
| 20260506015036 | 74 | 7 | 0.0 | 2.0 | 0.00 | 0.00 | 0.00 | 69 | 981.1 |
| 20260506014016 | 74 | 316 | 0.0 | 4.0 | 0.00 | 0.00 | 0.00 | 68 | 981.0 |
| 20260506013016 | 75 | 0.0 | 0.0 | 0.00 | 0.00 | 0.00 | 68 | 980.8 | |
| 20260506012016 | 75 | 0.0 | 1.0 | 0.00 | 0.00 | 0.00 | 68 | 981.1 | |
| 20260506011037 | 76 | 279 | 0.0 | 3.0 | 0.00 | 0.00 | 0.00 | 68 | 980.7 |
| 20260506010036 | 76 | 6 | 0.0 | 1.0 | 0.00 | 0.00 | 0.00 | 67 | 980.5 |
| 20260506005016 | 77 | 7 | 2.0 | 7.0 | 0.00 | 0.00 | 0.00 | 67 | 980.2 |
| 20260506004016 | 78 | 357 | 0.0 | 6.0 | 0.00 | 0.00 | 0.00 | 65 | 980.1 |
| 20260506003016 | 78 | 332 | 0.0 | 4.0 | 0.00 | 0.00 | 0.00 | 64 | 980.0 |
| 20260506002016 | 79 | 305 | 2.0 | 4.0 | 0.00 | 0.00 | 0.00 | 62 | 980.2 |
| 20260506001016 | 80 | 353 | 2.0 | 4.0 | 0.00 | 0.00 | 0.00 | 62 | 980.2 |
| 20260506000016 | 81 | 311 | 2.0 | 6.0 | 0.00 | 0.00 | 0.00 | 60 | 979.5 |
| 20260505235016 | 82 | 354 | 1.0 | 6.0 | 0.00 | 0.00 | 0.00 | 58 | 979.4 |
| 20260505234036 | 84 | 360 | 3.0 | 6.0 | 0.00 | 0.00 | 0.00 | 55 | 979.4 |
| 20260505233016 | 85 | 359 | 2.0 | 6.0 | 0.00 | 0.00 | 0.00 | 51 | 979.3 |
| 20260505232016 | 87 | 359 | 2.0 | 5.0 | 0.00 | 0.00 | 0.00 | 49 | 979.0 |
| 20260505231016 | 89 | 286 | 3.0 | 5.0 | 0.00 | 0.00 | 0.00 | 55 | 978.8 |
| 20260505230016 | 90 | 185 | 0.0 | 2.0 | 0.00 | 0.00 | 0.00 | 54 | 978.5 |
| 20260505225016 | 89 | 0.0 | 0.0 | 0.00 | 0.00 | 0.00 | 55 | 978.6 | |
| 20260505224116 | 89 | 0.0 | 0.0 | 0.00 | 0.00 | 0.00 | 54 | 978.6 | |
| 20260505223016 | 90 | 0.0 | 2.0 | 0.00 | 0.00 | 0.00 | 55 | 978.4 | |
| 20260505222016 | 90 | 231 | 1.0 | 4.0 | 0.00 | 0.00 | 0.00 | 55 | 978.2 |
| 20260505221016 | 90 | 0.0 | 0.0 | 0.00 | 0.00 | 0.00 | 54 | 978.2 | |
| 20260505220016 | 90 | 0.0 | 6.0 | 0.00 | 0.00 | 0.00 | 54 | 978.3 | |
| 20260505215016 | 91 | 291 | 0.0 | 6.0 | 0.00 | 0.00 | 0.00 | 52 | 978.4 |
| 20260505214016 | 91 | 227 | 1.0 | 5.0 | 0.00 | 0.00 | 0.00 | 53 | 978.5 |
| 20260505213016 | 91 | 251 | 1.0 | 6.0 | 0.00 | 0.00 | 0.00 | 54 | 978.6 |
| 20260505212016 | 91 | 206 | 2.0 | 7.0 | 0.00 | 0.00 | 0.00 | 55 | 978.8 |
| 20260505211016 | 90 | 256 | 2.0 | 8.0 | 0.00 | 0.00 | 0.00 | 56 | 978.9 |
| 20260505210036 | 89 | 237 | 8.0 | 14.0 | 0.00 | 0.00 | 0.00 | 56 | 978.9 |
| 20260505205016 | 89 | 149 | 0.0 | 3.0 | 0.00 | 0.00 | 0.00 | 58 | 979.0 |
| 20260505204036 | 88 | 213 | 2.0 | 8.0 | 0.00 | 0.00 | 0.00 | 58 | 979.2 |
| 20260505203016 | 88 | 232 | 1.0 | 8.0 | 0.00 | 0.00 | 0.00 | 58 | 979.3 |
| 20260505202036 | 88 | 209 | 0.0 | 6.0 | 0.00 | 0.00 | 0.00 | 58 | 979.4 |
| 20260505201016 | 89 | 186 | 0.0 | 6.0 | 0.00 | 0.00 | 0.00 | 58 | 979.3 |
| 20260505200016 | 88 | 258 | 1.0 | 11.0 | 0.00 | 0.00 | 0.00 | 59 | 979.4 |
| 20260505195016 | 88 | 247 | 4.0 | 9.0 | 0.00 | 0.00 | 0.00 | 59 | 979.4 |
| 20260505194017 | 87 | 200 | 4.0 | 11.0 | 0.00 | 0.00 | 0.00 | 62 | 979.6 |
| 20260505193036 | 86 | 192 | 2.0 | 4.0 | 0.00 | 0.00 | 0.00 | 64 | 979.4 |
| 20260505192016 | 86 | 238 | 4.0 | 10.0 | 0.00 | 0.00 | 0.00 | 64 | 979.5 |
| 20260505190016 | 84 | 241 | 4.0 | 10.0 | 0.00 | 0.00 | 0.00 | 66 | 979.7 |
| 20260505185016 | 84 | 198 | 1.0 | 5.0 | 0.00 | 0.00 | 0.00 | 66 | 979.8 |
| 20260505184016 | 84 | 184 | 3.0 | 5.0 | 0.00 | 0.00 | 0.00 | 66 | 979.7 |
| 20260505183016 | 84 | 201 | 3.0 | 6.0 | 0.00 | 0.00 | 0.00 | 67 | 979.8 |
| 20260505182016 | 84 | 153 | 1.0 | 3.0 | 0.00 | 0.00 | 0.00 | 68 | 979.7 |
| 20260505181036 | 83 | 184 | 4.0 | 9.0 | 0.00 | 0.00 | 0.00 | 67 | 979.8 |
| 20260505180016 | 83 | 214 | 2.0 | 6.0 | 0.00 | 0.00 | 0.00 | 69 | 979.9 |
| 20260505175036 | 83 | 191 | 3.0 | 7.0 | 0.00 | 0.00 | 0.00 | 68 | 979.8 |
| 20260505174016 | 82 | 214 | 5.0 | 8.0 | 0.00 | 0.00 | 0.00 | 68 | 979.8 |